This is the latest recevied weather packets stored in our database for station/object KB3GVC-13. If no packets are shown the sender has not sent any weather packets the latest 10 day(s).
| Time | Temp. | Humidity | Pressure | Rain* | Wind** | Luminosity | Snow |
|---|---|---|---|---|---|---|---|
| 1777495627 | 14.44° C | 59% | 1011.5 hPa | 0 mm | - | - | - |
| 1777495323 | 14.44° C | 59% | 1011.5 hPa | 0 mm | - | - | - |
| 1777495021 | 15° C | 58% | 1011.5 hPa | 0 mm | - | - | - |
| 1777494718 | 15° C | 59% | 1011.2 hPa | 0 mm | - | - | - |
| 1777494415 | 15° C | 60% | 1011.1 hPa | 0 mm | - | - | - |
| 1777494111 | 15° C | 60% | 1011.3 hPa | 0 mm | - | - | - |
| 1777493809 | 15° C | 61% | 1011.5 hPa | 0 mm | - | - | - |
| 1777493507 | 15° C | 62% | 1011.6 hPa | 0 mm | - | - | - |
| 1777493203 | 15° C | 61% | 1011.8 hPa | 0 mm | - | - | - |
| 1777492900 | 15° C | 63% | 1011.9 hPa | 0 mm | - | - | - |
| 1777492596 | 14.44° C | 64% | 1011.9 hPa | 0 mm | - | - | - |
| 1777492291 | 14.44° C | 63% | 1012 hPa | 0 mm | - | - | - |
| 1777491989 | 14.44° C | 62% | 1012.2 hPa | 0 mm | - | - | - |
| 1777491685 | 14.44° C | 62% | 1012.3 hPa | 0 mm | - | - | - |
| 1777491383 | 15° C | 61% | 1012.2 hPa | 0 mm | - | - | - |
| 1777491080 | 15° C | 62% | 1012.5 hPa | 0 mm | - | - | - |
| 1777490775 | 15° C | 62% | 1012.8 hPa | 0 mm | - | - | - |
| 1777490472 | 15° C | 63% | 1013 hPa | 0 mm | - | - | - |
| 1777490168 | 15° C | 63% | 1013 hPa | 0 mm | - | - | - |
| 1777489866 | 15° C | 65% | 1013.3 hPa | 0 mm | - | - | - |
| 1777489564 | 15° C | 65% | 1013.5 hPa | 0 mm | - | - | - |
| 1777489260 | 15° C | 67% | 1013.5 hPa | 0 mm | - | - | - |
| 1777488957 | 14.44° C | 70% | 1013.4 hPa | 0 mm | - | - | - |
| 1777488654 | 14.44° C | 67% | 1013.6 hPa | 0 mm | - | - | - |
| 1777488352 | 14.44° C | 66% | 1013.7 hPa | 0 mm | - | - | - |
* Rain latest hour (hover to see other rain measurements)
** Current wind speed in m/s (hover to see current wind gust speed)